K5EBQ Weather Reports


Display with metric or nautical units.
time (UTC)temp
F
wind
direction
speed
MPH
gust
MPH
rain 1hr
in
rain 24hr
in
rain mn
in
humidity
%
barometer
mb
20240623153027 89 86 1.0 6.0 0.00 0.00 0.00 72 1012.9
20240623151526 88 112 0.0 4.0 0.00 0.00 0.00 74 1013.1
20240623150023 87 136 1.0 6.0 0.00 0.00 0.00 77 1013.1
20240623144520 87 78 0.0 2.0 0.00 0.00 0.00 77 1013.3
20240623143025 85 76 0.0 4.0 0.00 0.00 0.00 78 1013.2
20240623141515 84 78 0.0 3.0 0.00 0.00 0.00 80 1013.3
20240623140012 83 73 0.0 6.0 0.00 0.00 0.00 81 1013.3
20240623134512 82 76 0.0 0.0 0.00 0.00 0.00 82 1013.3
20240623133011 84 155 0.0 0.0 0.00 0.00 0.00 79 1013.2
20240623131508 83 158 0.0 0.0 0.00 0.00 0.00 80 1013.2
20240623130005 81 159 0.0 0.0 0.00 0.00 0.00 82 1012.9
20240623124501 80 161 0.0 0.0 0.00 0.00 0.00 85 1012.9
20240623123117 79 161 0.0 0.0 0.00 0.00 0.00 87 1012.8
20240623121634 77 161 0.0 0.0 0.00 0.00 0.00 90 1012.6
20240623120059 76 161 0.0 0.0 0.00 0.00 0.00 93 1012.5
20240623114606 75 161 0.0 0.0 0.00 0.00 0.00 93 1012.4
20240623113056 75 161 0.0 0.0 0.00 0.00 0.00 93 1012.2
20240623111601 75 161 0.0 0.0 0.00 0.00 0.00 93 1012.2
20240623110055 74 161 0.0 0.0 0.00 0.00 0.00 93 1012.2
20240623104554 74 161 0.0 0.0 0.00 0.00 0.00 93 1012.2
20240623103054 74 161 0.0 0.0 0.00 0.00 0.00 93 1012.1
20240623101554 74 161 0.0 0.0 0.00 0.00 0.00 93 1012.0
20240623100054 74 161 0.0 0.0 0.00 0.00 0.00 93 1012.1
20240623094559 74 161 0.0 0.0 0.00 0.00 0.00 92 1012.0
20240623093051 74 161 0.0 0.0 0.00 0.00 0.00 92 1012.1
20240623091550 74 161 0.0 0.0 0.00 0.00 0.00 92 1012.1
20240623090052 75 161 0.0 0.0 0.00 0.00 0.00 91 1012.0
20240623084549 75 161 0.0 0.0 0.00 0.00 0.00 91 1012.1
20240623083049 75 161 0.0 0.0 0.00 0.00 0.00 90 1012.1
20240623081556 76 161 0.0 0.0 0.00 0.00 0.00 89 1012.1
20240623080043 76 161 0.0 0.0 0.00 0.00 0.00 89 1012.3
20240623074544 76 161 0.0 0.0 0.00 0.00 0.00 88 1012.4
20240623073039 77 161 0.0 0.0 0.00 0.00 0.00 87 1012.5
20240623071537 77 161 0.0 0.0 0.00 0.00 0.00 86 1012.7
20240623070035 77 161 0.0 0.0 0.00 0.00 0.00 86 1012.7
20240623064540 77 161 0.0 0.0 0.00 0.00 0.00 85 1012.9
20240623063033 78 161 0.0 0.0 0.00 0.00 0.00 84 1013.1
20240623061530 78 161 0.0 0.0 0.00 0.00 0.00 83 1013.2
20240623060037 78 161 0.0 0.0 0.00 0.00 0.00 82 1013.3
20240623054533 79 161 0.0 0.0 0.00 0.00 0.00 81 1013.4
20240623053023 79 161 0.0 0.0 0.00 0.00 0.00 80 1013.4
20240623051522 80 161 0.0 0.0 0.00 0.00 0.00 79 1013.5
20240623050020 80 161 0.0 0.0 0.00 0.00 0.00 78 1013.7
20240623044519 80 161 0.0 0.0 0.00 0.00 0.00 77 1013.7
20240623043019 81 161 0.0 0.0 0.00 0.00 0.00 77 1013.6
20240623041536 81 161 0.0 0.0 0.00 0.00 0.00 76 1013.6
20240623040023 81 161 0.0 0.0 0.00 0.00 0.00 76 1013.4
20240623034521 82 161 0.0 0.0 0.00 0.00 0.00 75 1013.4
20240623033027 82 161 0.0 0.0 0.00 0.00 0.00 75 1013.3
20240623031516 83 161 0.0 0.0 0.00 0.00 0.00 74 1013.2
20240623030016 83 160 0.0 0.0 0.00 0.00 0.00 74 1013.0
20240623024519 83 160 0.0 0.0 0.00 0.00 0.00 73 1012.9
20240623023015 84 159 0.0 0.0 0.00 0.00 0.00 71 1012.6
20240623021515 85 159 0.0 0.0 0.00 0.00 0.00 69 1012.6
20240623020014 85 159 0.0 0.0 0.00 0.00 0.00 68 1012.4
20240623014514 86 158 0.0 0.0 0.00 0.00 0.00 67 1012.2
20240623013022 87 158 0.0 0.0 0.00 0.00 0.00 65 1012.0
20240623011516 88 186 0.0 0.0 0.00 0.00 0.00 64 1012.0
20240623010016 88 186 0.0 0.0 0.00 0.00 0.00 63 1011.8
20240623004511 89 186 0.0 7.0 0.00 0.00 0.00 61 1011.7
20240623003016 90 188 1.0 5.0 0.00 0.00 0.00 60 1011.7
20240623001515 91 173 1.0 6.0 0.00 0.00 0.00 59 1011.7
20240623000017 91 113 2.0 5.0 0.00 0.00 0.00 56 1011.6
20240622234509 92 109 0.0 4.0 0.00 0.00 0.00 56 1011.6
20240622233013 92 109 0.0 6.0 0.00 0.00 0.00 56 1011.7
20240622231507 92 102 2.0 9.0 0.00 0.00 0.00 54 1011.7
20240622230007 93 117 1.0 5.0 0.00 0.00 0.00 54 1011.7
20240622224507 93 124 1.0 5.0 0.00 0.00 0.00 54 1011.8
20240622223006 93 110 2.0 8.0 0.00 0.00 0.00 54 1011.8
20240622221504 93 111 0.0 9.0 0.00 0.00 0.00 54 1011.9
20240622220003 93 132 1.0 7.0 0.00 0.00 0.00 55 1012.0
20240622214613 93 160 1.0 9.0 0.00 0.00 0.00 55 1012.2
20240622213101 94 65 1.0 7.0 0.00 0.00 0.00 54 1012.2
20240622211558 94 82 0.0 10.0 0.00 0.00 0.00 53 1012.3
20240622210057 95 107 2.0 8.0 0.00 0.00 0.00 51 1012.5
20240622204607 94 63 3.0 9.0 0.00 0.00 0.00 52 1012.6
20240622203051 94 59 1.0 10.0 0.00 0.00 0.00 54 1012.8
20240622201549 93 115 2.0 7.0 0.00 0.00 0.00 51 1013.0
20240622200047 94 114 1.0 4.0 0.00 0.00 0.00 51 1013.2
20240622194609 94 93 2.0 6.0 0.00 0.00 0.00 50 1013.3
20240622193053 94 96 1.0 6.0 0.00 0.00 0.00 49 1013.5
20240622191553 93 184 2.0 7.0 0.00 0.00 0.00 51 1013.7
20240622190043 94 93 3.0 6.0 0.00 0.00 0.00 48 1013.9
20240622184540 95 50 5.0 11.0 0.00 0.00 0.00 47 1014.1
20240622183036 94 122 1.0 8.0 0.00 0.00 0.00 52 1014.1
20240622181545 93 65 3.0 9.0 0.00 0.00 0.00 53 1014.2
20240622180035 92 164 0.0 4.0 0.00 0.00 0.00 56 1014.3
20240622174630 93 130 2.0 7.0 0.00 0.00 0.00 53 1014.5
20240622173027 93 126 1.0 4.0 0.00 0.00 0.00 58 1014.5
20240622171530 93 110 3.0 6.0 0.00 0.00 0.00 56 1014.6
20240622170028 92 137 1.0 5.0 0.00 0.00 0.00 59 1014.8
20240622164520 91 71 3.0 6.0 0.00 0.00 0.00 59 1014.8
20240622163016 91 101 1.0 7.0 0.00 0.00 0.00 59 1015.0
20240622161522 91 57 2.0 7.0 0.00 0.00 0.00 61 1015.1
20240622160012 91 69 2.0 7.0 0.00 0.00 0.00 61 1015.1
20240622154517 89 103 0.0 4.0 0.00 0.00 0.00 64 1015.1